Weather History for New Orleans Lakefront, LA

Change the Weather History Date:

Friday, October 19, 2012

  Actual Average Record
Temperature  
Mean Temperature 69 °F 70 °F  
Max Temperature 80 °F 79 °F 89 °F (1993)
Min Temperature 58 °F 62 °F 44 °F (1967)
Degree Days  
Heating Degree Days 0 1  
Month to date heating degree days 0 6  
Since 1 July heating degree days 0 6  
Cooling Degree Days 4 6  
Month to date cooling degree days 150 161  
Year to date cooling degree days 3291 2850  
Growing Degree Days 23 (Base 50)    
Moisture  
Dew Point 49 °F    
Average Humidity 51    
Maximum Humidity 84    
Minimum Humidity 17    
Precipitation  
Precipitation 0.00 in 0.12 in 1.41 in (2006)
Month to date precipitation 0.40 2.11  
Year to date precipitation 60.65 51.29  
Snow  
Snow 0.00 in - - ()
Month to date snowfall 0.0  
Since 1 July snowfall 0.0  
Since 1 September snowfall 0.0  
Snow Depth 0.00 in    
Sea Level Pressure  
Sea Level Pressure 29.91 in    
Wind  
Wind Speed 6 mph (NW)    
Max Wind Speed 17 mph    
Max Gust Speed 28 mph    
Visibility 10 miles    
Events      
T = Trace of Precipitation, MM = Missing Value Source: NWS Daily Summary

Daily Weather History Graph

Daily Weather History Graph

Search for Another Location

Airport:

Trip Planner

Search our weather history database for the weather conditions in past years. The results will help you decide how hot, cold, wet, or windy it might be!

Date:

Astronomy

Oct. 19, 2012 Rise Set
Actual Time 7:05 AM CDT 6:24 PM CDT
Civil Twilight 6:40 AM CDT 6:48 PM CDT
Nautical Twilight 6:12 AM CDT 7:16 PM CDT
Astronomical Twilight 5:45 AM CDT 7:44 PM CDT
Moon 11:33 AM CDT (10/19) 10:16 PM CDT (10/19)
Length of Visible Light 12h 07m
Length of Day
11h 19m
Waxing Crescent, 24% of the Moon is Illuminated
Oct 19
Waxing Crescent
Oct 21
First Quarter
Oct 29
Full
Nov 6
Last Quarter
Nov 13
New

Hourly Weather History & Observations

Time (CDT) Temp. Dew Point Humidity Pressure Visibility Wind Dir Wind Speed Gust Speed Precip Events Conditions
12:53 AM 72.0 °F 52.0 °F 49% 29.89 in 10.0 mi NNE 11.5 mph - N/A   Clear
1:53 AM 70.0 °F 53.1 °F 55% 29.90 in 10.0 mi NNE 8.1 mph - N/A   Clear
2:53 AM 69.1 °F 52.0 °F 54% 29.89 in 10.0 mi NNE 5.8 mph - N/A   Clear
3:53 AM 69.1 °F 51.1 °F 53% 29.88 in 10.0 mi NNE 9.2 mph - N/A   Clear
4:53 AM 68.0 °F 50.0 °F 52% 29.89 in 10.0 mi North 9.2 mph - N/A   Clear
5:53 AM 69.1 °F 50.0 °F 51% 29.91 in 10.0 mi North 9.2 mph - N/A   Clear
6:53 AM 69.1 °F 50.0 °F 51% 29.91 in 10.0 mi North 11.5 mph - N/A   Clear
7:53 AM 70.0 °F 48.9 °F 47% 29.92 in 10.0 mi North 17.3 mph - N/A   Clear
8:53 AM 71.1 °F 48.0 °F 44% 29.95 in 10.0 mi NNW 16.1 mph - N/A   Clear
9:53 AM 73.9 °F 46.9 °F 38% 29.96 in 10.0 mi NNW 15.0 mph - N/A   Clear
10:53 AM 75.0 °F 46.0 °F 36% 29.96 in 10.0 mi NW 9.2 mph - N/A   Clear
11:53 AM 75.0 °F 48.0 °F 38% 29.95 in 10.0 mi NW 10.4 mph - N/A   Clear
12:53 PM 75.9 °F 46.0 °F 35% 29.93 in 10.0 mi NW 11.5 mph - N/A   Clear
1:53 PM 77.0 °F 44.1 °F 31% 29.91 in 10.0 mi NW 13.8 mph - N/A   Clear
2:53 PM 77.0 °F 45.0 °F 32% 29.89 in 10.0 mi WNW 11.5 mph - N/A   Clear
3:53 PM 78.1 °F 42.1 °F 28% 29.87 in 10.0 mi WNW 10.4 mph - N/A   Clear
4:53 PM 77.0 °F 45.0 °F 32% 29.87 in 10.0 mi WNW 12.7 mph - N/A   Clear
5:53 PM 77.0 °F 48.9 °F 37% 29.86 in 10.0 mi WNW 10.4 mph - N/A   Clear
6:53 PM 77.0 °F 48.9 °F 37% 29.87 in 10.0 mi West 15.0 mph - N/A   Clear
7:53 PM 75.9 °F 50.0 °F 40% 29.88 in 10.0 mi West 15.0 mph - N/A   Clear
8:53 PM 75.0 °F 51.1 °F 43% 29.89 in 10.0 mi West 13.8 mph - N/A   Clear
9:53 PM 72.0 °F 51.1 °F 48% 29.91 in 10.0 mi West 10.4 mph - N/A   Clear
10:53 PM 68.0 °F 48.0 °F 49% 29.91 in 10.0 mi SW 6.9 mph - N/A   Clear
11:53 PM 71.1 °F 51.1 °F 49% 29.92 in 10.0 mi WSW 8.1 mph - N/A   Clear